EW7347 Weather Reports


time (UTC)temp
C
wind
direction
speed
KPH
gust
KPH
rain 1hr
cm
rain 24hr
cm
rain mn
cm
humidity
%
barometer
mb
20260510211139 7 184 0.0 0.0 0.00 0.00 0.00 68 1013.6
20260510210638 7 184 0.0 0.0 0.00 0.00 0.00 68 1013.6
20260510210141 7 184 0.0 0.0 0.00 0.00 0.00 67 1013.6
20260510205650 7 184 0.0 0.0 0.00 0.00 0.00 67 1013.7
20260510205144 7 184 0.0 0.0 0.00 0.00 0.00 67 1013.8
20260510204647 7 184 0.0 0.0 0.00 0.00 0.00 67 1013.8
20260510203529 7 184 0.0 0.0 0.00 0.00 0.00 66 1013.8
20260510201739 8 142 0.0 0.0 0.00 0.00 0.00 64 1013.8
20260510201232 8 128 0.0 0.0 0.00 0.00 0.00 63 1013.8
20260510200720 8 110 0.0 0.0 0.00 0.00 0.00 62 1013.9
20260510200204 8 194 0.0 1.6 0.00 0.00 0.00 62 1013.9
20260510195657 8 83 0.0 0.0 0.00 0.00 0.00 61 1013.9
20260510195159 9 55 0.0 0.0 0.00 0.00 0.00 61 1014.0
20260510194643 9 351 0.0 0.0 0.00 0.00 0.00 60 1013.9
20260510194129 9 155 0.0 0.0 0.00 0.00 0.00 60 1014.0
20260510193637 9 167 0.0 0.0 0.00 0.00 0.00 59 1014.1
20260510193127 10 183 0.0 0.0 0.00 0.00 0.00 58 1014.1
20260510192005 10 55 0.0 0.0 0.00 0.00 0.00 57 1014.1
20260510190820 10 51 0.0 1.6 0.00 0.00 0.00 55 1014.1
20260510190318 11 120 0.0 0.0 0.00 0.00 0.00 56 1014.1
20260510185814 11 200 0.0 0.0 0.00 0.00 0.00 55 1014.1
20260510185256 11 273 0.0 0.0 0.00 0.00 0.00 54 1014.2
20260510184131 11 12 0.0 0.0 0.00 0.00 0.00 49 1014.2
20260510183626 11 102 0.0 0.0 0.00 0.00 0.00 49 1014.3
20260510182443 11 121 0.0 0.0 0.00 0.00 0.00 49 1014.1
20260510180702 12 287 0.0 1.6 0.00 0.00 0.00 47 1014.2
20260510180205 12 9 0.0 4.8 0.00 0.00 0.00 45 1014.1
20260510175645 12 59 0.0 1.6 0.00 0.00 0.00 45 1014.1
20260510175147 13 257 0.0 1.6 0.00 0.00 0.00 45 1014.1
20260510174647 13 28 0.0 0.0 0.00 0.00 0.00 45 1014.1
20260510173548 14 30 0.0 4.8 0.00 0.00 0.00 42 1014.2
20260510173042 14 51 0.0 0.0 0.00 0.00 0.00 42 1014.2
20260510172546 14 329 0.0 0.0 0.00 0.00 0.00 43 1014.2
20260510171407 14 121 0.0 0.0 0.00 0.00 0.00 43 1014.3
20260510170904 15 75 0.0 0.0 0.00 0.00 0.00 43 1014.3
20260510170403 14 124 0.0 1.6 0.00 0.00 0.00 43 1014.5
20260510165913 14 290 0.0 0.0 0.00 0.00 0.00 45 1014.4
20260510165357 14 165 0.0 0.0 0.00 0.00 0.00 42 1014.4
20260510164216 13 91 0.0 1.6 0.00 0.00 0.00 44 1014.7
20260510163657 14 303 0.0 4.8 0.00 0.00 0.00 43 1014.7
20260510163159 14 49 0.0 0.0 0.00 0.00 0.00 44 1014.8
20260510162647 14 80 0.0 0.0 0.00 0.00 0.00 44 1014.8
20260510162130 13 323 0.0 1.6 0.00 0.00 0.00 45 1015.0
20260510161614 13 17 0.0 0.0 0.00 0.00 0.00 45 1015.0
20260510161054 13 217 0.0 0.0 0.00 0.00 0.00 46 1015.0
20260510155333 13 288 0.0 0.0 0.00 0.00 0.00 45 1015.2
20260510154818 13 348 0.0 4.8 0.00 0.00 0.00 47 1015.3
20260510153017 14 336 0.0 0.0 0.00 0.00 0.00 47 1015.5
20260510152502 14 275 0.0 4.8 0.00 0.00 0.00 45 1015.5
20260510152003 14 313 0.0 3.2 0.00 0.00 0.00 46 1015.4
20260510151452 14 39 0.0 6.4 0.00 0.00 0.00 46 1015.5
20260510150934 15 263 0.0 0.0 0.00 0.00 0.00 46 1015.6
20260510150438 15 355 0.0 0.0 0.00 0.00 0.00 46 1015.6
20260510145921 15 88 0.0 0.0 0.00 0.00 0.00 45 1015.6
20260510145420 15 65 0.0 0.0 0.00 0.00 0.00 45 1015.7
20260510144242 15 172 0.0 6.4 0.00 0.00 0.00 43 1015.9
20260510143743 15 279 0.0 1.6 0.00 0.00 0.00 45 1015.9
20260510142617 15 256 0.0 0.0 0.00 0.00 0.00 46 1015.9
20260510142101 15 248 0.0 0.0 0.00 0.00 0.00 45 1015.9
20260510140248 15 10 0.0 0.0 0.00 0.00 0.00 45 1016.1
20260510135738 15 39 0.0 8.0 0.00 0.00 0.00 47 1016.1
20260510135232 15 0 0.0 11.3 0.00 0.00 0.00 45 1016.1
20260510133444 15 246 0.0 8.0 0.00 0.00 0.00 47 1016.1
20260510132940 15 88 0.0 0.0 0.00 0.00 0.00 48 1016.2
20260510131811 15 114 0.0 3.2 0.00 0.00 0.00 47 1016.3
20260510131259 15 280 0.0 0.0 0.00 0.00 0.00 49 1016.3
20260510125507 14 306 0.0 3.2 0.00 0.00 0.00 49 1016.5
20260510124948 14 269 0.0 8.0 0.00 0.00 0.00 50 1016.6
20260510124441 15 344 0.0 14.5 0.00 0.00 0.00 49 1016.6
20260510123935 15 283 0.0 0.0 0.00 0.00 0.00 50 1016.6
20260510123428 15 98 0.0 0.0 0.00 0.00 0.00 50 1016.8
20260510122915 15 313 0.0 9.7 0.00 0.00 0.00 50 1016.8
20260510122407 15 76 0.0 9.7 0.00 0.00 0.00 50 1016.8
20260510121905 14 53 0.0 4.8 0.00 0.00 0.00 50 1016.9
20260510121409 14 196 0.0 0.0 0.00 0.00 0.00 51 1017.0
20260510120859 14 196 0.0 6.4 0.00 0.00 0.00 54 1017.1
20260510120340 13 285 0.0 0.0 0.00 0.00 0.00 53 1017.1
20260510115834 13 5 0.0 0.0 0.00 0.00 0.00 56 1017.2
20260510114725 13 119 0.0 0.0 0.00 0.00 0.00 55 1017.4
20260510114234 13 116 0.0 9.7 0.00 0.00 0.00 56 1017.4
20260510113718 13 49 0.0 4.8 0.00 0.00 0.00 56 1017.5
20260510113206 13 47 0.0 0.0 0.00 0.00 0.00 58 1017.4
20260510112652 12 215 0.0 9.7 0.00 0.00 0.00 59 1017.5
20260510112151 12 271 0.0 0.0 0.00 0.00 0.00 60 1017.7
20260510111653 12 23 0.0 16.1 0.00 0.00 0.00 57 1017.7
20260510111153 12 347 0.0 11.3 0.00 0.00 0.00 58 1017.7
20260510110028 12 292 0.0 12.9 0.00 0.00 0.00 57 1017.8
20260510105523 12 315 0.0 12.9 0.00 0.00 0.00 59 1017.8
20260510104358 12 123 0.0 0.0 0.00 0.00 0.00 63 1018.0
20260510103851 12 0 0.0 4.8 0.00 0.00 0.00 62 1017.9
20260510103342 12 289 0.0 9.7 0.00 0.00 0.00 62 1017.8
20260510102826 12 259 0.0 9.7 0.00 0.00 0.00 63 1017.9
20260510102315 11 262 0.0 6.4 0.00 0.00 0.00 63 1017.9
20260510101813 11 126 0.0 6.4 0.00 0.00 0.00 63 1018.0
20260510101315 11 162 0.0 6.4 0.00 0.00 0.00 63 1018.1
20260510100819 11 263 0.0 6.4 0.00 0.00 0.00 63 1018.0
20260510100312 12 130 0.0 6.4 0.00 0.00 0.00 65 1018.0
20260510095816 12 279 0.0 0.0 0.00 0.00 0.00 64 1018.0
20260510095322 12 118 0.0 0.0 0.00 0.00 0.00 64 1018.0
20260510094805 12 355 0.0 11.3 0.00 0.00 0.00 64 1018.0
20260510094250 12 259 0.0 11.3 0.00 0.00 0.00 63 1018.1
20260510093749 12 263 0.0 8.0 0.00 0.00 0.00 65 1018.1
20260510093248 12 304 0.0 16.1 0.00 0.00 0.00 64 1018.1
20260510092749 12 274 0.0 16.1 0.00 0.00 0.00 64 1018.2
20260510092259 12 276 0.0 16.1 0.00 0.00 0.00 63 1018.1
20260510091751 12 175 0.0 9.7 0.00 0.00 0.00 64 1018.1
20260510091253 12 300 0.0 3.2 0.00 0.00 0.00 65 1018.2
20260510090744 12 155 0.0 11.3 0.00 0.00 0.00 65 1018.3
20260510090249 12 230 0.0 11.3 0.00 0.00 0.00 65 1018.3
20260510085115 12 68 0.0 4.8 0.00 0.00 0.00 68 1018.3
20260510084619 11 290 0.0 4.8 0.00 0.00 0.00 68 1018.3
20260510083455 11 74 1.6 11.3 0.00 0.00 0.00 71 1018.3
20260510082324 10 5 1.6 12.9 0.00 0.00 0.00 72 1018.4
20260510081207 10 355 0.0 6.4 0.00 0.00 0.00 74 1018.5
20260510080703 10 270 0.0 6.4 0.00 0.00 0.00 75 1018.5
20260510075514 9 186 0.0 12.9 0.00 0.00 0.00 76 1018.6
20260510075003 9 274 0.0 12.9 0.00 0.00 0.00 76 1018.5
20260510074501 9 96 0.0 12.9 0.00 0.00 0.00 77 1018.5
20260510073947 9 5 0.0 12.9 0.00 0.00 0.00 77 1018.6
20260510073432 9 284 0.0 8.0 0.00 0.00 0.00 78 1018.6
20260510072912 8 139 0.0 8.0 0.00 0.00 0.00 78 1018.6
20260510072415 8 298 0.0 3.2 0.00 0.00 0.00 79 1018.5
20260510071901 8 321 0.0 12.9 0.00 0.00 0.00 78 1018.5
20260510071350 8 285 0.0 12.9 0.00 0.00 0.00 79 1018.5
20260510070832 8 74 0.0 12.9 0.00 0.00 0.00 79 1018.4
20260510070325 8 345 0.0 12.9 0.00 0.00 0.00 79 1018.5
20260510065150 8 134 0.0 8.0 0.00 0.00 0.00 79 1018.3
20260510064648 8 322 0.0 14.5 0.00 0.00 0.00 79 1018.3
20260510064137 8 74 0.0 14.5 0.00 0.00 0.00 80 1018.2
20260510063632 8 280 0.0 14.5 0.00 0.00 0.00 80 1018.2
20260510063120 8 323 0.0 14.5 0.00 0.00 0.00 80 1018.3
20260510061944 8 304 0.0 11.3 0.00 0.00 0.00 81 1018.2
20260510061443 8 316 0.0 11.3 0.00 0.00 0.00 81 1018.2
20260510060926 8 298 0.0 11.3 0.00 0.00 0.00 81 1018.2
20260510060417 8 337 0.0 6.4 0.00 0.00 0.00 82 1018.2
20260510055907 8 148 0.0 6.4 0.00 0.00 0.00 82 1018.2
20260510055355 8 267 0.0 14.5 0.00 0.00 0.00 82 1018.2
20260510054839 8 244 0.0 14.5 0.00 0.00 0.00 81 1018.2
20260510054326 8 345 0.0 14.5 0.00 0.00 0.00 81 1018.2
20260510053818 8 103 0.0 14.5 0.00 0.00 0.00 81 1018.1
20260510053305 8 306 0.0 14.5 0.00 0.00 0.00 81 1018.2
20260510052142 8 299 0.0 9.7 0.00 0.00 0.00 81 1018.2
20260510051642 8 63 0.0 9.7 0.00 0.00 0.00 81 1018.3
20260510051151 8 271 0.0 0.0 0.00 0.00 0.00 81 1018.3
20260510050640 8 318 0.0 11.3 0.00 0.00 0.00 81 1018.3
20260510050137 8 226 0.0 11.3 0.00 0.00 0.00 81 1018.3
20260510045645 8 315 0.0 11.3 0.00 0.00 0.00 81 1018.2
20260510045127 8 116 0.0 9.7 0.00 0.00 0.00 81 1018.2
20260510044627 8 262 0.0 9.7 0.00 0.00 0.00 82 1018.2
20260510044116 9 274 0.0 9.7 0.00 0.00 0.00 82 1018.2
20260510043607 9 15 0.0 14.5 0.00 0.00 0.00 82 1018.2
20260510043052 9 273 0.0 14.5 0.00 0.00 0.00 82 1018.1
20260510042600 9 259 0.0 11.3 0.00 0.00 0.00 82 1018.0
20260510042103 9 281 0.0 11.3 0.00 0.00 0.00 82 1018.1
20260510041603 9 274 0.0 4.8 0.00 0.00 0.00 83 1018.0
20260510040427 9 340 0.0 14.5 0.00 0.00 0.00 83 1017.9
20260510035934 9 54 0.0 14.5 0.00 0.00 0.00 83 1017.9
20260510035427 9 175 0.0 11.3 0.00 0.00 0.00 83 1017.9
20260510034242 9 286 0.0 14.5 0.00 0.00 0.00 82 1018.0
20260510033751 9 264 0.0 14.5 0.00 0.00 0.00 82 1018.1
20260510033244 10 305 0.0 11.3 0.00 0.00 0.00 82 1018.2
20260510032730 10 0 0.0 6.4 0.00 0.00 0.00 82 1018.2
20260510032232 10 275 0.0 11.3 0.00 0.00 0.00 82 1018.3
20260510031054 10 218 0.0 11.3 0.00 0.00 0.00 82 1018.3
20260510030558 10 273 0.0 11.3 0.00 0.00 0.00 82 1018.3
20260510025602 10 327 0.0 4.8 0.00 0.00 0.00 82 1018.4
20260510025049 10 62 0.0 4.8 0.00 0.00 0.00 82 1018.4
20260510024558 10 55 0.0 0.0 0.00 0.00 0.00 82 1018.4
20260510023419 10 333 0.0 14.5 0.00 0.00 0.00 82 1018.6
20260510022252 10 313 0.0 3.2 0.00 0.00 0.00 82 1018.5
20260510021800 10 225 0.0 14.5 0.00 0.00 0.00 82 1018.6
20260510021307 10 285 0.0 11.3 0.00 0.00 0.00 82 1018.6
20260510020748 10 0 0.0 4.8 0.00 0.00 0.00 82 1018.6
20260510020235 10 355 0.0 4.8 0.00 0.00 0.00 82 1018.6
20260510015745 10 227 0.0 0.0 0.00 0.00 0.00 82 1018.6
20260510015251 10 93 0.0 4.8 0.00 0.00 0.00 82 1018.6
20260510014735 10 250 0.0 9.7 0.00 0.00 0.00 82 1018.7
20260510014233 10 119 0.0 3.2 0.00 0.00 0.00 82 1018.8
20260510013729 10 277 0.0 11.3 0.00 0.00 0.00 82 1018.7
20260510013223 10 302 0.0 8.0 0.00 0.00 0.00 83 1018.7
20260510012712 10 75 0.0 8.0 0.00 0.00 0.00 83 1018.7
20260510012218 10 330 0.0 8.0 0.00 0.00 0.00 83 1018.6
20260510011720 10 63 0.0 8.0 0.00 0.00 0.00 83 1018.6
20260510011223 10 256 0.0 9.7 0.00 0.00 0.00 83 1018.6
20260510010706 10 298 0.0 9.7 0.00 0.00 0.00 83 1018.7
20260510010212 10 36 0.0 9.7 0.00 0.00 0.00 83 1018.8
20260510005715 10 355 0.0 9.7 0.00 0.00 0.00 83 1018.6
20260510005220 10 299 0.0 19.3 0.00 0.00 0.00 83 1018.4
20260510004054 10 283 0.0 11.3 0.00 0.00 0.00 83 1018.4
20260510003556 10 331 0.0 11.3 0.00 0.00 0.00 83 1018.5
20260510003105 10 306 0.0 3.2 0.00 0.00 0.00 83 1018.5
20260510002557 10 13 0.0 4.8 0.00 0.00 0.00 83 1018.4
20260510002057 10 215 0.0 3.2 0.00 0.00 0.00 83 1018.5
20260510001556 10 355 0.0 19.3 0.00 0.00 0.00 83 1018.6
20260510001041 9 250 0.0 6.4 0.00 0.00 0.00 84 1018.6
20260509235928 9 97 0.0 8.0 0.00 0.00 0.00 84 1018.6
20260509234809 9 206 0.0 9.7 0.00 0.00 0.00 84 1018.5
20260509234252 9 283 0.0 11.3 0.00 0.00 0.00 84 1018.6
20260509233754 9 207 0.0 11.3 0.00 0.00 0.00 84 1018.6
20260509233252 9 319 0.0 12.9 0.00 0.00 0.00 84 1018.7
20260509232750 9 294 0.0 12.9 0.00 0.00 0.00 84 1018.7
20260509231613 9 292 0.0 12.9 0.00 0.00 0.00 84 1018.8
20260509231055 9 279 0.0 4.8 0.00 0.00 0.00 84 1018.8
20260509225910 10 81 0.0 1.6 0.00 0.00 0.00 84 1018.5
20260509225356 10 293 0.0 14.5 0.00 0.00 0.00 84 1018.5
20260509224238 10 273 0.0 0.0 0.00 0.00 0.00 83 1018.4
20260509223742 10 307 0.0 9.7 0.00 0.00 0.00 83 1018.4
20260509223232 10 204 0.0 3.2 0.00 0.00 0.00 83 1018.5
20260509222108 10 49 0.0 0.0 0.00 0.00 0.00 82 1018.5
20260509221608 10 271 0.0 9.7 0.00 0.00 0.00 82 1018.5
20260509221118 10 106 0.0 9.7 0.00 0.00 0.00 82 1018.5
20260509220616 10 290 0.0 9.7 0.00 0.00 0.00 82 1018.5
20260509220111 10 235 0.0 9.7 0.00 0.00 0.00 82 1018.6
20260509215612 11 167 0.0 8.0 0.00 0.00 0.00 82 1018.4
20260509215054 11 313 0.0 6.4 0.00 0.00 0.00 82 1018.4
20260509214548 11 294 0.0 6.4 0.00 0.00 0.00 81 1018.3
20260509214052 11 265 0.0 6.4 0.00 0.00 0.00 81 1018.2
20260509213539 11 34 0.0 6.4 0.00 0.00 0.00 79 1018.2